This demonstration page uses our WeatherBlox Daily Observations layout. Learn more.

41.55636, -103.73856

Hourly Observations for July 24, 2016

Temp ( °F °C ) Dew Point ( °F °C ) Humidity (%) Winds ( mph kmh ) Pressure ( in mb ) Visibility ( mi km ) Precip ( " mm )
12:53 am 00:53 Clear 68 20 56 13.3 65 65 NNE 5 7 29.91 1013 10 16.0934 0 0
1:53 am 01:53 Clear 65 18.3 56 13.3 73 73 ESE 7 11 29.91 1013 10 16.0934 0 0
2:53 am 02:53 Clear 66 18.9 56 13.3 70 70 SE 3 6 29.91 1013 10 16.0934 0 0
3:53 am 03:53 Clear 65 18.3 58 14.4 78 78 E 6 9 29.9 1013 10 16.0934 0 0
4:53 am 04:53 Clear 63 17.2 56 13.3 78 78 Calm 29.9 1012 10 16.0934 0 0
5:53 am 05:53 Sunny 62 16.7 56 13.3 80 80 Calm 29.94 1014 10 16.0934 0 0
6:53 am 06:53 Mostly Sunny 67 19.4 57 13.9 71 71 NNW 10 17 29.96 1015 10 16.0934 0 0
7:53 am 07:53 Sunny 70 21.1 55 12.8 59 59 ENE 10 17 29.95 1014 10 16.0934 0 0
8:53 am 08:53 Cloudy 76 24.4 54 12.2 47 47 E 14 22 29.98 1015 10 16.0934 0 0
9:53 am 09:53 Mostly Sunny 77 25 54 12.2 45 45 ENE 15 24 30.02 1017 10 16.0934 0 0
10:53 am 10:53 Sunny 81 27.2 54 12.2 39 39 ESE 13 20 30.03 1017 10 16.0934 0 0
11:53 am 11:53 Sunny 84 28.9 51 10.6 32 32 ESE 21 33 30.02 1017 10 16.0934 0 0
12:53 pm 12:53 Sunny 85 29.4 50 10 30 30 ESE 20 31 30.01 1016 10 16.0934 0 0
1:53 pm 13:53 Sunny 85 29.4 54 12.2 35 35 E 20 31 29.99 1016 10 16.0934 0 0
2:53 pm 14:53 Sunny 81 27.2 54 12.2 39 39 ESE 17 28 29.97 1015 10 16.0934 0 0
3:53 pm 15:53 Partly Cloudy with Light Rain 77 25 55 12.8 47 47 E 14 22 29.97 1015 10 16.0934 0 0.0254
4:53 pm 16:53 Sunny 82 27.8 53 11.7 37 37 E 17 28 29.96 1015 10 16.0934 0 0.0254
5:53 pm 17:53 Sunny 81 27.2 54 12.2 39 39 ESE 20 31 29.97 1015 10 16.0934 0 0
6:53 pm 18:53 Sunny 80 26.7 53 11.7 39 39 ESE 17 28 29.96 1015 10 16.0934 0 0
7:53 pm 19:53 Sunny 76 24.4 55 12.8 48 48 ESE 13 20 29.98 1015 10 16.0934 0 0
8:53 pm 20:53 Clear 71 21.7 55 12.8 57 57 SE 9 15 30 1016 10 16.0934 0 0
9:53 pm 21:53 Clear 66 18.9 56 13.3 70 70 ESE 6 9 30.05 1018 10 16.0934 0 0
10:53 pm 22:53 Clear 66 18.9 55 12.8 68 68 SSE 6 9 30.05 1018 10 16.0934 0 0
11:53 pm 23:53 Clear 62 16.7 55 12.8 78 78 VRB 3 6 30.07 1018 10 16.0934 0 0

Powered by AerisWeather